Ellensburg, WA

1:59 PM PDT on August 19, 2017 (GMT -0700)
Bowers

Weather History for KELN - March, 2013

Change the Weather History Date:

Saturday, March 16, 2013

  Actual Average (KYKM) Record (KYKM)
Temperature  
Mean Temperature 44 °F -  
Max Temperature 55 °F 56 °F 76 °F (1947)
Min Temperature 34 °F 30 °F 20 °F (2002)
Degree Days  
Heating Degree Days 20    
Moisture  
Dew Point 32 °F    
Average Humidity 67    
Maximum Humidity 86    
Minimum Humidity 43    
Precipitation  
Precipitation 0.00 in - - ()
Sea Level Pressure  
Sea Level Pressure 29.93 in    
Wind  
Wind Speed 7 mph (NW)    
Max Wind Speed 21 mph    
Max Gust Speed 33 mph    
Visibility 10 miles    
Events Rain    
Averages and records for this station are not official NWS values.
T = Trace of Precipitation, MM = Missing Value Source: NWS Daily Summary

Daily Weather History Graph

Daily Weather History Graph

Search for Another Location

Airport or City:

Trip Planner

Search our weather history database for the weather conditions in past years. The results will help you decide how hot, cold, wet, or windy it might be!

Date:

Astronomy

Mar. 16, 2013 Rise Set
Actual Time 7:12 AM PDT 7:09 PM PDT
Civil Twilight 6:42 AM PDT 7:40 PM PDT
Nautical Twilight 6:06 AM PDT 8:15 PM PDT
Astronomical Twilight 5:30 AM PDT 8:52 PM PDT
Moon 9:25 AM PDT (3/16) No Moon Set
Length of Visible Light 12h 58m
Length of Day
11h 57m
Waxing Crescent, 24% of the Moon is Illuminated
Mar 16
Waxing Crescent
Mar 19
First Quarter
Mar 27
Full
Apr 2
Last Quarter
Apr 10
New

Hourly Weather History & Observations

Time (PDT) Temp. Windchill Dew Point Humidity Pressure Visibility Wind Dir Wind Speed Gust Speed Precip Events Conditions
12:53 AM 39.9 °F 35.8 °F 34.0 °F 79% 30.08 in 10.0 mi West 5.8 mph - N/A   Clear
1:53 AM 41.0 °F - 36.0 °F 82% 30.07 in 10.0 mi Calm Calm - N/A   Clear
2:53 AM 41.0 °F - 35.1 °F 79% 30.06 in 10.0 mi Calm Calm - N/A   Clear
3:53 AM 37.0 °F - 33.1 °F 86% 30.05 in 10.0 mi Calm Calm - N/A   Scattered Clouds
4:53 AM 37.0 °F - 33.1 °F 86% 30.03 in 10.0 mi Calm Calm - N/A   Clear
5:53 AM 37.0 °F - 33.1 °F 86% 30.01 in 10.0 mi Calm Calm - N/A   Clear
6:53 AM 37.9 °F - 34.0 °F 86% 30.01 in 10.0 mi Calm Calm - N/A   Overcast
7:53 AM 39.0 °F 34.0 °F 34.0 °F 82% 30.00 in 10.0 mi NW 6.9 mph - N/A   Overcast
8:53 AM 41.0 °F 38.0 °F 35.1 °F 79% 30.00 in 10.0 mi South 4.6 mph - N/A   Clear
9:53 AM 46.9 °F - 37.0 °F 68% 29.97 in 10.0 mi WNW 10.4 mph - N/A   Clear
10:53 AM 52.0 °F - 35.1 °F 53% 29.96 in 10.0 mi NW 15.0 mph - N/A   Clear
11:53 AM 52.0 °F - 33.1 °F 49% 29.94 in 10.0 mi WNW 13.8 mph - N/A   Scattered Clouds
12:53 PM 53.1 °F - 30.9 °F 43% 29.91 in 10.0 mi WNW 15.0 mph - N/A   Overcast
1:53 PM 53.1 °F - 30.9 °F 43% 29.87 in 10.0 mi WNW 4.6 mph - N/A   Overcast
2:53 PM 51.1 °F - 33.1 °F 50% 29.83 in 10.0 mi NNW 12.7 mph - 0.00 in   Overcast
3:53 PM 48.0 °F - 34.0 °F 58% 29.83 in 10.0 mi NW 19.6 mph 33.4 mph 0.00 in Rain Light Rain
4:53 PM 46.9 °F - 32.0 °F 56% 29.81 in 10.0 mi NW 20.7 mph 31.1 mph 0.00 in   Mostly Cloudy
5:53 PM 46.0 °F 38.5 °F 30.9 °F 56% 29.80 in 10.0 mi NW 19.6 mph - N/A   Overcast
6:53 PM 41.0 °F 31.6 °F 32.0 °F 70% 29.83 in 10.0 mi WNW 20.7 mph 29.9 mph 0.00 in   Overcast
7:53 PM 39.9 °F 31.4 °F 28.0 °F 63% 29.81 in 10.0 mi NW 16.1 mph - N/A   Partly Cloudy
8:53 PM 37.9 °F 28.9 °F 24.1 °F 57% 29.82 in 10.0 mi WNW 16.1 mph 24.2 mph N/A   Clear
9:53 PM 36.0 °F 29.6 °F 26.1 °F 67% 29.83 in 10.0 mi NNW 8.1 mph - N/A   Clear
10:53 PM 36.0 °F 26.3 °F 26.1 °F 67% 29.83 in 10.0 mi NNW 16.1 mph - N/A   Partly Cloudy
11:53 PM 34.0 °F 28.0 °F 25.0 °F 70% 29.85 in 10.0 mi NNW 6.9 mph - N/A   Clear